Hourly Data Report for November 11, 2016

All times are specified in Local Standard Time (LST). Add 1 hour to adjust for Daylight Saving Time where and when it is observed.

VICTORIA UNIVERSITY CS
BRITISH COLUMBIA

48°27'25.200" N
123°18'16.600" W
60.10 m
1018598
71783
WYJ

Download Data

Hourly Data (November 2016)
Hourly Data Report for November 11, 2016
TIME Temp Definition
°C
Dew Point Definition
°C
Rel Hum Definition
%
Wind Dir Definition
10's deg

Wind Spd Definition
km/h
Visibility Definition
km
Stn Press Definition
kPa
Hmdx Definition


Wind Chill Definition


Weather Definition


00:00 10.4 10.0 97   0   100.87     LegendNANA
01:00 10.5 10.2 98 13 3   100.83     LegendNANA
02:00 10.5 10.2 98 19 3   100.88     LegendNANA
03:00 10.4 10.2 99 21 3   100.85     LegendNANA
04:00 10.0 9.8 99   0   100.72     LegendNANA
05:00 9.8 9.6 99 0 1   100.70     LegendNANA
06:00 10.0 9.8 99 6 3   100.66     LegendNANA
07:00 10.1 9.8 98 29 4   100.73     LegendNANA
08:00 10.4 10.0 98 2 4   100.71     LegendNANA
09:00 10.8 10.3 97 32 4   100.73     LegendNANA
10:00 11.0 10.3 95 5 9   100.71     LegendNANA
11:00 11.9 10.8 93 10 3   100.67     LegendNANA
12:00 12.4 11.0 91 33 5   100.59     LegendNANA
13:00 12.1 10.7 91 34 7   100.55     LegendNANA
14:00 11.6 10.9 95 11 6   100.56     LegendNANA
15:00 12.0 10.6 91 1 4   100.48     LegendNANA
16:00 11.6 10.4 93 35 8   100.39     LegendNANA
17:00 11.4 10.3 93 33 6   100.36     LegendNANA
18:00 11.5 10.0 91 1 4   100.29     LegendNANA
19:00 11.2 10.2 94 4 2   100.28     LegendNANA
20:00 11.4 10.6 95 1 6   100.21     LegendNANA
21:00 11.3 10.8 97 2 7   100.20     LegendNANA
22:00 11.3 10.7 96 33 12   100.16     LegendNANA
23:00 11.4 10.9 97 35 13   100.06     LegendNANA

Notes on Data Quality.

Legend

  • E = Estimated
  • M = Missing
  • NA = Not Available
Date modified: